KA5C Weather Reports


Display with metric or nautical units.
time (UTC)temp
F
wind
direction
speed
MPH
gust
MPH
rain 1hr
in
rain 24hr
in
rain mn
in
humidity
%
barometer
mb
20260506204033 70 120 8.0 19.0 0.00 0.01 0.01 100 1054.8
20260506203035 69 85 12.0 22.0 0.00 0.01 0.01 100 1054.8
20260506202132 69 77 20.0 24.0 0.00 0.01 0.01 100 1054.6
20260506201135 70 99 8.0 14.0 0.00 0.01 0.01 100 1054.6
20260506200133 72 102 5.0 11.0 0.00 0.01 0.01 100 1054.4
20260506195133 73 98 9.0 12.0 0.00 0.01 0.01 100 1054.0
20260506193233 74 67 12.0 16.0 0.00 0.01 0.01 100 1054.1
20260506192234 75 78 10.0 16.0 0.00 0.01 0.01 100 1054.0
20260506191235 75 78 10.0 14.0 0.00 0.01 0.01 100 1054.2
20260506190332 74 66 8.0 11.0 0.00 0.01 0.01 100 1054.6
20260506185333 73 60 3.0 9.0 0.00 0.01 0.01 100 1054.5
20260506184432 72 110 7.0 9.0 0.00 0.01 0.01 100 1054.4
20260506182432 71 140 2.0 4.0 0.00 0.01 0.01 100 1054.7
20260506181435 70 123 7.0 8.0 0.00 0.01 0.01 100 1054.6
20260506180434 68 118 2.0 4.0 0.00 0.01 0.01 100 1054.5
20260506175534 68 125 8.0 10.0 0.00 0.01 0.01 100 1054.6
20260506174534 67 99 5.0 6.0 0.00 0.01 0.01 100 1054.6
20260506173532 66 100 6.0 7.0 0.00 0.01 0.01 100 1054.7
20260506172535 65 85 6.0 8.0 0.00 0.01 0.01 100 1054.9
20260506171632 64 102 7.0 10.0 0.00 0.01 0.01 100 1054.7
20260506170635 64 122 5.0 10.0 0.00 0.01 0.01 100 1054.8
20260506165731 63 119 9.0 11.0 0.00 0.01 0.01 100 1055.2
20260506164734 63 123 10.0 14.0 0.01 0.01 0.01 100 1055.1
20260506163833 63 80 9.0 18.0 0.01 0.01 0.01 100 1055.2
20260506162834 64 68 13.0 22.0 0.01 0.01 0.01 100 1055.8
20260506161834 65 82 15.0 22.0 0.01 0.01 0.01 100 1056.0
20260506160834 66 107 8.0 17.0 0.01 0.01 0.01 100 1055.4
20260506155833 69 105 12.0 22.0 0.01 0.01 0.01 100 1055.6
20260506154932 74 83 15.0 28.0 0.00 0.00 0.00 100 1055.0
20260506153932 76 92 6.0 7.0 0.00 0.00 0.00 100 1054.8
20260506152933 75 125 4.0 5.0 0.00 0.00 0.00 100 1054.7
20260506152031 75 120 5.0 6.0 0.00 0.00 0.00 100 1054.1
20260506151034 75 149 4.0 5.0 0.00 0.00 0.00 100 1054.3
20260506150033 75 137 4.0 5.0 0.00 0.00 0.00 100 1054.0
20260506142034 76 138 4.0 7.0 0.00 0.00 0.00 100 1053.0
20260506141133 76 136 2.0 4.0 0.00 0.00 0.00 100 1053.3
20260506140132 75 30 0.0 2.0 0.00 0.00 0.00 100 1053.4
20260506135134 75 135 2.0 3.0 0.00 0.00 0.00 100 1052.8
20260506134232 75 143 4.0 7.0 0.00 0.00 0.00 100 1052.7
20260506133234 74 142 4.0 5.0 0.00 0.00 0.00 100 1052.5
20260506132233 74 143 4.0 5.0 0.00 0.00 0.00 100 1052.5
20260506131235 74 140 5.0 7.0 0.00 0.00 0.00 100 1052.5
20260506130331 74 135 4.0 7.0 0.00 0.00 0.00 100 1052.5
20260506125334 75 138 5.0 7.0 0.00 0.00 0.00 100 1052.3
20260506124333 75 136 3.0 5.0 0.00 0.00 0.00 100 1052.3
20260506122431 75 35 1.0 3.0 0.00 0.00 0.00 100 1052.4
20260506121432 75 160 0.0 1.0 0.00 0.00 0.00 100 1052.5
20260506120531 75 299 0.0 2.0 0.00 0.00 0.00 100 1052.3
20260506115533 75 64 1.0 3.0 0.00 0.00 0.00 100 1052.0
20260506113535 75 108 1.0 2.0 0.00 0.00 0.00 100 1052.2
20260506112631 75 53 0.0 1.0 0.00 0.00 0.00 100 1052.1
20260506111631 75 69 1.0 3.0 0.00 0.00 0.00 100 1052.1
20260506110631 75 151 2.0 6.0 0.00 0.00 0.00 100 1052.1
20260506105631 75 235 2.0 7.0 0.00 0.00 0.00 100 1052.1
20260506104631 75 134 1.0 2.0 0.00 0.00 0.00 100 1052.1
20260506103633 75 77 1.0 3.0 0.00 0.00 0.00 100 1051.9
20260506102634 75 57 0.0 2.0 0.00 0.00 0.00 100 1051.6
20260506101732 75 320 1.0 3.0 0.00 0.00 0.00 100 1051.6
20260506100732 75 41 2.0 7.0 0.00 0.00 0.00 100 1051.4
20260506094831 75 175 3.0 9.0 0.00 0.00 0.00 100 1051.2
20260506093831 75 230 2.0 8.0 0.00 0.00 0.00 100 1051.0
20260506092835 75 81 2.0 4.0 0.00 0.00 0.00 100 1051.0
20260506091930 75 262 3.0 7.0 0.00 0.00 0.00 100 1051.0
20260506090931 75 84 2.0 7.0 0.00 0.00 0.00 100 1050.6
20260506085933 75 258 1.0 5.0 0.00 0.00 0.00 100 1050.7
20260506085032 75 93 3.0 9.0 0.00 0.00 0.00 100 1050.9
20260506084035 75 63 2.0 4.0 0.00 0.00 0.00 100 1050.9
20260506083132 75 105 3.0 7.0 0.00 0.00 0.00 100 1050.6
20260506081231 75 175 4.0 11.0 0.00 0.00 0.00 100 1050.8
20260506073432 75 152 2.0 7.0 0.00 0.00 0.00 100 1051.1
20260506071533 75 300 2.0 7.0 0.00 0.00 0.00 100 1051.4
20260506070534 75 55 1.0 4.0 0.00 0.00 0.00 100 1051.4
20260506060532 75 190 2.0 5.0 0.00 0.00 0.00 100 1051.4
20260506050632 76 177 4.0 9.0 0.00 0.00 0.00 100 1051.6
20260506044723 76 61 3.0 6.0 0.00 0.00 0.00 100 1051.4
20260506044621 76 303 3.0 6.0 0.00 0.00 0.00 100 1051.5
20260506043621 76 326 1.0 3.0 0.00 0.00 0.00 100 1051.5
20260506042622 77 40 2.0 7.0 0.00 0.00 0.00 100 1051.5
20260506041721 77 149 2.0 5.0 0.00 0.00 0.00 100 1051.3
20260506040721 77 240 3.0 5.0 0.00 0.00 0.00 100 1051.3
20260506035723 77 62 2.0 4.0 0.00 0.00 0.00 100 1051.2
20260506034721 77 93 1.0 4.0 0.00 0.00 0.00 100 1051.1
20260506033723 77 105 4.0 7.0 0.00 0.00 0.00 100 1050.9
20260506032721 77 99 2.0 5.0 0.00 0.00 0.00 100 1051.0
20260506031722 78 124 2.0 4.0 0.00 0.00 0.00 100 1050.6
20260506030721 78 163 2.0 4.0 0.00 0.00 0.00 100 1050.5
20260506025820 78 83 2.0 7.0 0.00 0.00 0.00 100 1050.5
20260506023921 78 88 2.0 5.0 0.00 0.00 0.00 100 1050.1
20260506022922 79 99 2.0 6.0 0.00 0.00 0.00 100 1049.8
20260506021919 79 145 2.0 4.0 0.00 0.00 0.00 100 1049.5
20260506020921 80 183 2.0 6.0 0.00 0.00 0.00 100 1049.5
20260506015919 80 127 2.0 6.0 0.00 0.00 0.00 100 1049.2
20260506014923 80 226 1.0 4.0 0.00 0.00 0.00 100 1049.3
20260506013021 81 108 2.0 7.0 0.00 0.00 0.00 100 1049.1
20260506012022 81 67 1.0 4.0 0.00 0.00 0.00 100 1049.2
20260506011020 81 27 1.0 3.0 0.00 0.00 0.00 100 1049.3
20260506005120 82 126 2.0 5.0 0.00 0.00 0.00 100 1049.2
20260506004122 82 70 2.0 4.0 0.00 0.00 0.00 100 1049.1
20260506003121 82 63 1.0 3.0 0.00 0.00 0.00 100 1049.0
20260506002220 82 291 4.0 7.0 0.00 0.00 0.00 100 1049.0
20260506001223 82 122 1.0 5.0 0.00 0.00 0.00 100 1048.9
20260505235221 83 105 0.0 3.0 0.00 0.00 0.00 100 1048.8
20260505234221 83 334 2.0 7.0 0.00 0.00 0.00 100 1048.7
20260505233319 83 48 1.0 4.0 0.00 0.00 0.00 100 1048.7
20260505232321 83 34 1.0 5.0 0.00 0.00 0.00 100 1048.6
20260505230320 83 20 1.0 4.0 0.00 0.00 0.00 100 1048.5
20260505225320 84 87 3.0 7.0 0.00 0.00 0.00 100 1048.4
20260505224319 84 107 3.0 7.0 0.00 0.00 0.00 100 1048.5
20260505224221 84 51 2.0 6.0 0.00 0.00 0.00 100 1048.5
20260505223320 84 254 4.0 10.0 0.00 0.00 0.00 100 1048.5
20260505222420 84 61 3.0 5.0 0.00 0.00 0.00 100 1048.5
20260505220420 84 358 2.0 6.0 0.00 0.00 0.00 100 1048.5
20260505215419 84 165 4.0 12.0 0.00 0.00 0.00 100 1048.6
20260505214420 84 39 3.0 5.0 0.00 0.00 0.00 100 1049.0
20260505213422 84 187 4.0 9.0 0.00 0.00 0.00 100 1049.1
20260505212421 83 235 5.0 13.0 0.00 0.00 0.00 100 1049.1
20260505211421 83 255 4.0 9.0 0.00 0.00 0.00 100 1049.1
20260505210519 83 162 3.0 8.0 0.00 0.00 0.00 100 1049.1
20260505205520 83 76 2.0 6.0 0.00 0.00 0.00 100 1049.3